Wind_Speed
7 7 7 7 7 7 7 7 6 6 6 6 7 7 6 6 5 5 4 4 4 5 5 4 3 3 3 3 3 2 3 3 3 3 3 3 4 4 5 6 6 7 7
5 6 6 6 6 7 6 6 6 5 5 6 6 6 6 5 5 4 4 5 5 4 4 4 4 4 4 4 4 4 4 4 5 5 5 5 5 6 7 7 8 8 9
5 6 6 6 6 6 6 6 5 5 5 5 6 6 6 6 6 6 6 5 5 4 4 5 5 5 6 5 5 5 5 6 6 6 6 6 6 6 7 8 8 9 10
6 6 6 6 6 6 6 5 5 5 5 5 5 6 6 6 6 6 6 6 6 5 5 6 5 6 7 6 6 6 6 6 6 6 7 7 7 8 8 9 10 10 11
6 6 6 6 6 6 6 6 6 6 6 6 6 6 7 7 7 7 7 7 7 6 6 7 7 8 8 8 7 8 8 7 7 7 8 8 8 9 10 11 12 12 12
6 6 7 6 6 6 7 7 7 7 7 7 7 7 8 9 9 8 8 9 8 8 8 8 9 10 10 10 10 10 10 9 9 8 9 10 10 11 12 13 14 14 14
6 7 8 8 7 7 8 7 7 8 8 8 8 8 9 10 9 9 9 9 9 9 9 10 10 11 11 12 12 12 11 11 11 11 12 12 13 13 14 14 15 16 16
8 8 9 9 8 8 8 8 8 9 9 10 10 10 10 10 10 11 11 11 11 11 11 11 12 12 12 12 12 12 12 13 13 13 14 15 16 16 16 17 17 17 17
9 9 10 10 10 9 9 9 9 10 10 11 11 11 11 11 11 12 12 12 13 13 13 13 14 13 13 13 13 13 14 15 16 16 17 17 17 18 18 18 17 17 17
10 10 11 11 11 11 11 11 11 11 12 12 12 12 13 13 12 13 13 13 13 14 14 15 15 15 15 15 15 15 16 16 17 18 18 19 18 19 19 18 18 18 18
11 12 13 13 13 12 12 12 12 13 13 13 13 14 15 15 14 14 14 14 15 15 16 16 16 17 18 17 17 17 18 18 18 19 19 20 19 19 19 19 19 19 19
13 13 14 15 14 14 13 13 13 14 15 15 15 16 16 16 17 16 16 16 17 17 17 17 18 18 19 19 20 19 20 20 20 20 21 21 21 21 21 21 21 21 21
15 15 16 16 16 15 15 14 15 15 17 17 17 16 17 17 18 17 17 18 18 19 19 19 19 19 20 20 21 21 22 22 23 23 23 23 23 23 23 23 23 22 22
17 17 17 17 17 16 16 17 16 16 17 18 18 18 18 18 18 18 18 18 19 20 20 21 21 21 21 21 22 23 23 24 24 24 24 24 24 25 25 25 25 24 24
19 19 19 18 17 17 17 17 18 18 18 18 19 19 19 19 19 19 19 20 20 21 21 21 22 22 22 22 23 23 24 24 25 25 26 25 26 27 26 26 26 26 26
20 20 21 21 20 19 18 18 19 19 19 19 20 20 21 21 22 21 22 22 22 22 22 22 23 23 23 24 24 25 25 25 26 27 27 28 28 28 28 28 28 27 27
21 22 22 22 21 20 20 20 20 20 20 21 21 22 22 23 23 23 23 23 24 24 24 24 24 24 25 25 25 26 26 26 27 27 28 29 30 30 30 29 29 29 29
22 22 22 22 22 22 22 23 22 21 21 22 22 23 23 24 25 25 25 25 26 26 26 27 27 27 27 27 27 27 28 28 28 28 29 29 29 30 30 30 30 30 30
24 24 23 23 24 24 24 25 24 23 23 24 24 25 25 25 26 26 25 26 27 27 28 28 29 29 29 29 29 29 29 30 29 29 29 29 29 30 30 30 30 31 31
25 26 26 25 26 26 26 26 26 25 25 25 26 26 27 27 27 27 27 28 28 28 29 29 30 30 30 30 30 30 30 29 30 30 30 30 30 30 30 30 30 30 31
27 27 27 26 27 27 27 28 27 27 28 27 27 28 28 28 28 28 28 29 29 30 30 30 31 30 30 30 31 30 30 29 30 30 30 29 29 29 29 29 30 30 31
28 28 28 28 29 29 29 29 29 28 28 28 28 29 29 28 28 28 29 30 30 30 30 31 31 30 30 30 30 30 30 30 30 30 29 29 29 29 29 30 30 31 31
29 29 30 30 31 31 31 30 30 29 30 30 29 29 29 29 29 30 30 30 30 31 31 31 30 30 30 30 30 31 31 31 31 31 30 30 30 29 30 30 31 31 31
30 30 30 31 31 32 32 31 31 31 31 30 29 28 29 30 30 31 31 31 31 32 32 31 31 31 31 31 31 31 31 31 31 31 30 30 30 30 31 31 31 31 31
31 31 31 31 31 32 31 31 31 31 32 31 31 30 30 31 32 32 31 31 32 32 32 31 31 31 32 31 31 31 31 31 31 31 31 31 31 31 31 31 31 31 32
31 32 32 31 31 31 31 31 32 32 32 31 31 30 31 31 31 31 31 32 32 32 32 32 32 32 31 31 30 30 30 30 31 31 31 31 31 31 31 30 31 31 32
Wind_Direction
22 18 16 17 19 21 23 24 25 21 15 14 13 12 14 16 19 20 20 12 1 352 349 342 348 342 332 319 315 317 320 306 293 283 279 275 274 270 268 269 269 270 275
13 11 7 6 7 10 9 10 9 10 2 358 360 0 358 358 358 354 350 349 344 339 332 329 330 331 329 322 311 302 308 295 283 275 275 274 271 272 270 270 271 269 273
343 345 349 354 355 355 355 358 358 359 355 352 348 345 345 344 340 337 336 336 335 333 328 325 327 324 326 329 322 310 305 297 291 283 274 272 271 272 272 270 270 271 274
341 337 333 340 342 343 345 348 348 342 339 338 337 335 331 330 327 325 328 325 324 324 322 322 324 327 324 320 314 308 307 299 296 291 281 278 278 275 280 279 278 277 278
341 341 332 330 331 337 339 340 335 333 331 329 326 320 316 313 313 311 311 312 312 309 310 313 314 314 312 307 303 302 303 297 290 287 286 284 283 284 284 282 280 281 279
333 332 324 324 323 327 329 328 330 328 323 321 321 317 310 307 304 299 302 305 303 302 302 304 306 305 305 305 302 297 298 298 299 293 290 287 286 285 285 283 281 281 280
325 323 322 319 316 314 317 317 320 321 319 317 316 313 309 306 303 298 297 297 296 299 301 302 302 299 298 298 299 297 297 296 295 293 291 289 289 285 283 283 280 280 281
310 315 316 313 309 309 309 311 312 311 308 309 308 306 306 303 300 298 296 295 293 294 294 296 298 296 295 295 295 294 296 296 295 293 291 290 290 289 285 283 283 282 283
305 312 313 309 306 305 307 307 304 301 302 305 307 306 306 306 301 297 296 295 295 295 294 292 293 294 293 294 293 292 294 295 295 293 290 291 291 288 291 288 283 286 287
305 307 308 306 299 297 298 301 302 300 300 302 304 304 305 303 298 295 293 294 294 293 294 293 294 295 293 293 293 293 294 296 296 294 292 290 289 288 287 288 287 285 286
302 307 308 308 301 296 296 299 303 304 302 300 301 301 301 299 297 293 292 294 295 295 295 295 295 295 293 291 291 290 291 293 293 293 291 290 289 287 285 283 284 285 285
299 303 305 306 305 305 303 300 298 298 298 299 301 300 299 299 297 294 295 295 295 296 297 297 296 295 294 292 291 290 290 291 293 292 291 290 289 286 284 282 284 284 285
303 303 303 304 305 303 305 305 302 298 298 299 301 302 301 299 297 293 294 294 294 294 295 296 296 295 293 293 291 290 290 292 291 290 289 289 288 287 285 283 282 283 284
300 302 301 302 302 298 300 303 301 299 298 298 300 300 300 300 298 295 295 294 293 293 294 294 294 294 293 292 291 290 290 290 289 289 289 287 286 285 285 284 282 282 283
298 299 300 299 298 295 296 298 298 298 298 299 299 299 298 298 298 297 298 296 295 294 293 293 292 292 293 292 292 291 290 289 289 288 288 286 285 284 283 283 281 281 281
293 296 296 296 296 294 294 295 296 297 296 296 298 299 297 295 295 294 296 295 295 294 293 292 292 292 292 292 292 291 291 291 291 290 288 286 284 284 282 282 280 279 279
292 293 293 292 293 294 293 291 294 294 293 293 294 296 297 295 293 294 294 294 295 294 294 293 292 292 292 292 292 292 292 290 290 290 288 286 284 283 281 280 279 279 278
289 291 292 293 291 289 289 290 290 292 292 292 292 293 295 296 296 294 293 293 294 293 294 294 293 293 294 294 295 294 292 290 289 288 288 288 286 284 282 280 279 279 278
285 287 289 289 289 288 289 290 292 292 292 291 291 292 293 294 295 294 295 293 293 293 294 295 295 294 294 293 292 292 291 291 289 289 288 288 286 285 283 281 280 280 279
285 286 285 287 287 288 287 288 292 292 292 292 291 290 291 292 293 292 294 294 293 292 292 292 293 293 292 291 291 290 290 290 289 289 289 288 287 286 283 281 281 281 280
284 285 284 285 286 288 287 289 291 291 291 291 291 291 290 290 291 293 294 295 295 293 293 294 293 293 293 293 292 292 292 291 291 290 289 288 288 287 285 284 283 283 282
282 283 284 285 285 286 286 287 288 287 287 287 288 289 290 290 292 293 294 295 295 295 295 295 294 293 294 295 295 294 293 292 291 291 290 288 288 287 286 285 284 283 283
280 280 281 283 284 286 286 286 286 285 285 286 285 287 288 291 293 294 294 295 296 296 296 295 295 296 296 295 293 292 291 291 291 291 290 288 288 288 286 285 285 283 282
278 279 280 281 283 283 285 284 284 285 285 286 286 287 289 291 292 294 294 295 296 296 296 295 295 295 294 294 293 291 291 290 290 290 288 288 287 287 286 286 285 284 283
277 279 280 281 282 283 283 283 285 287 289 288 287 286 288 291 291 293 296 298 298 298 297 296 296 295 295 294 293 291 290 290 289 288 287 286 287 287 287 287 286 284 282
278 279 282 282 282 282 282 283 284 286 289 290 289 288 290 291 293 295 297 298 298 298 298 298 297 295 295 294 293 292 291 290 290 290 289 288 288 288 288 288 288 287 284
Height
5890 5889 5888 5887 5886 5885 5883 5882 5881 5880 5880 5879 5878 5877 5876 5875 5874 5873 5872 5871 5871 5870 5869 5868 5867 5866 5866 5865 5864 5863 5863 5863 5862 5862 5862 5862 5862 5863 5863 5863 5863 5864 5864
5891 5889 5888 5887 5886 5885 5884 5883 5881 5880 5880 5879 5878 5877 5876 5875 5874 5873 5872 5871 5871 5870 5869 5868 5867 5866 5865 5864 5864 5863 5862 5861 5861 5861 5861 5861 5862 5861 5861 5861 5861 5861 5861
5891 5889 5888 5887 5886 5885 5884 5883 5881 5880 5879 5879 5878 5877 5876 5875 5874 5873 5872 5871 5870 5869 5868 5867 5866 5865 5864 5863 5863 5862 5862 5861 5860 5860 5860 5860 5859 5859 5859 5859 5859 5859 5859
5890 5889 5888 5887 5886 5884 5883 5882 5881 5880 5879 5878 5877 5876 5875 5874 5873 5872 5871 5870 5869 5868 5867 5866 5865 5864 5863 5862 5861 5861 5860 5859 5859 5858 5858 5858 5858 5857 5857 5857 5856 5856 5856
5889 5888 5887 5886 5885 5884 5883 5881 5880 5879 5878 5877 5876 5875 5874 5873 5872 5871 5870 5869 5868 5867 5866 5865 5864 5863 5862 5861 5860 5859 5858 5857 5857 5856 5856 5856 5855 5855 5855 5854 5854 5853 5852
5888 5887 5886 5885 5884 5883 5882 5880 5879 5878 5877 5876 5875 5874 5873 5872 5870 5869 5868 5867 5866 5865 5864 5863 5862 5861 5860 5859 5858 5857 5856 5855 5854 5854 5853 5853 5853 5852 5852 5851 5850 5850 5849
5887 5886 5885 5884 5883 5882 5881 5879 5878 5877 5876 5875 5874 5872 5871 5870 5868 5867 5866 5865 5864 5863 5862 5861 5860 5859 5858 5857 5856 5855 5854 5853 5852 5851 5850 5850 5849 5849 5848 5847 5846 5846 5845
5886 5885 5884 5883 5881 5880 5879 5878 5876 5875 5874 5873 5872 5870 5869 5867 5866 5865 5864 5863 5862 5861 5860 5858 5857 5856 5855 5854 5853 5851 5850 5849 5848 5848 5847 5846 5845 5844 5843 5843 5842 5841 5841
5884 5883 5882 5881 5879 5878 5877 5876 5874 5873 5872 5871 5869 5868 5867 5865 5864 5863 5861 5860 5859 5858 5857 5855 5854 5853 5851 5850 5849 5848 5847 5846 5845 5844 5843 5842 5841 5840 5839 5838 5838 5837 5836
5882 5881 5880 5879 5877 5876 5875 5873 5872 5870 5869 5868 5866 5865 5864 5862 5861 5859 5858 5856 5855 5854 5853 5852 5850 5849 5848 5847 5845 5844 5843 5842 5841 5840 5839 5837 5836 5835 5834 5833 5833 5832 5832
5880 5879 5877 5876 5875 5873 5872 5870 5869 5867 5866 5864 5863 5862 5860 5859 5857 5855 5854 5853 5852 5850 5849 5848 5846 5845 5844 5842 5841 5840 5839 5838 5837 5835 5834 5833 5832 5831 5829 5828 5828 5827 5826
5877 5876 5874 5873 5871 5870 5868 5867 5865 5863 5862 5861 5859 5857 5856 5855 5853 5852 5850 5849 5847 5846 5844 5843 5842 5840 5839 5837 5836 5835 5834 5833 5831 5830 5829 5827 5826 5825 5824 5823 5822 5821 5821
5873 5872 5871 5869 5868 5867 5865 5863 5861 5860 5858 5857 5855 5854 5852 5851 5849 5847 5846 5844 5843 5841 5839 5838 5836 5835 5834 5832 5831 5829 5828 5827 5825 5824 5823 5821 5820 5819 5818 5817 5816 5815 5815
5869 5868 5867 5865 5864 5862 5861 5859 5858 5856 5854 5853 5851 5850 5848 5846 5844 5843 5841 5839 5838 5836 5834 5832 5831 5829 5828 5826 5825 5823 5822 5820 5819 5818 5816 5815 5814 5813 5812 5811 5809 5808 5808
5865 5864 5862 5860 5859 5858 5856 5855 5853 5851 5850 5848 5847 5845 5843 5841 5840 5838 5836 5834 5832 5830 5828 5827 5825 5824 5822 5820 5818 5817 5815 5813 5812 5811 5809 5808 5806 5805 5804 5803 5802 5801 5801
5860 5859 5857 5856 5855 5853 5852 5850 5848 5846 5845 5843 5842 5840 5838 5836 5834 5833 5831 5829 5827 5825 5823 5821 5819 5817 5816 5814 5812 5810 5808 5806 5805 5803 5802 5800 5799 5798 5797 5795 5794 5794 5793
5855 5854 5852 5851 5849 5848 5846 5845 5843 5841 5839 5837 5835 5834 5832 5830 5828 5827 5825 5823 5821 5819 5817 5815 5812 5810 5809 5807 5805 5803 5801 5799 5797 5795 5794 5792 5791 5789 5788 5787 5786 5785 5784
5849 5848 5846 5845 5843 5842 5840 5838 5837 5834 5833 5831 5829 5827 5826 5824 5822 5820 5818 5816 5814 5812 5810 5808 5806 5803 5801 5799 5797 5795 5793 5791 5789 5787 5785 5784 5782 5780 5779 5778 5777 5776 5775
5843 5842 5840 5839 5837 5835 5833 5831 5829 5828 5826 5825 5823 5821 5819 5817 5815 5813 5811 5809 5807 5805 5802 5800 5798 5796 5793 5791 5789 5787 5785 5783 5781 5779 5777 5775 5773 5772 5770 5769 5768 5767 5766
5836 5835 5833 5832 5830 5829 5827 5824 5822 5820 5819 5818 5816 5814 5812 5810 5808 5806 5804 5801 5799 5797 5794 5792 5789 5787 5784 5782 5780 5778 5776 5774 5772 5770 5768 5766 5764 5763 5761 5760 5759 5758 5757
5829 5827 5826 5825 5823 5821 5820 5818 5816 5814 5812 5810 5808 5806 5804 5802 5800 5798 5795 5793 5791 5788 5786 5783 5781 5778 5776 5773 5771 5769 5767 5765 5763 5761 5759 5757 5755 5754 5752 5751 5750 5749 5747
5821 5820 5818 5817 5815 5814 5812 5810 5808 5806 5804 5802 5800 5798 5796 5794 5792 5789 5787 5785 5783 5780 5777 5775 5772 5770 5767 5765 5762 5760 5758 5756 5754 5752 5750 5748 5746 5745 5743 5742 5741 5739 5738
5813 5812 5810 5809 5807 5806 5804 5802 5800 5798 5796 5794 5792 5790 5788 5786 5784 5781 5779 5777 5774 5771 5769 5766 5764 5761 5759 5756 5754 5751 5749 5747 5745 5743 5741 5739 5737 5736 5734 5733 5731 5730 5728
5804 5803 5802 5800 5799 5797 5795 5794 5792 5789 5787 5785 5783 5781 5779 5778 5776 5773 5771 5768 5765 5763 5760 5758 5755 5753 5750 5747 5745 5742 5740 5737 5735 5733 5732 5730 5728 5727 5725 5724 5722 5720 5719
5795 5794 5793 5791 5790 5788 5786 5785 5783 5781 5779 5776 5775 5773 5771 5769 5767 5764 5762 5759 5756 5754 5751 5749 5746 5743 5741 5738 5735 5733 5730 5728 5726 5724 5722 5720 5719 5717 5716 5714 5712 5711 5709
5785 5785 5784 5782 5780 5778 5777 5776 5774 5772 5770 5768 5766 5764 5762 5760 5758 5756 5753 5750 5748 5745 5742 5739 5737 5734 5731 5728 5726 5723 5721 5718 5716 5714 5713 5711 5709 5708 5706 5705 5703 5701 5699